Погода Усановы

Погода Усановы : погода сейчас, прогноз погоды и архив. Всё, что Вы хотите узнать о погоде Усановы!

Поиск расширенной информации на нашем сайте:

Другие новости

Новости СМИ2

Главная страница сайта

Новости сайта

03.07.2017

Напоминаем, что на нашем специализированном сайте Метеоцентр.Азия вы можете получить высокодетализированные автоматические прогнозы погоды по пунктам России, СНГ и мира в авиационном формате (включающие направление и скорость ветра, видимость, явления погоды, количество и форму облачности, нижнюю и верхнюю границу облачности).

Рекомендуем: Генераторы бензиновые купить генераторы.

Погода Усановы - сегодня

Время (UTC), дата Ветер
(°,м/с) 
Видим.   Явления Облачность Т
(°С)
Тd
(°С)
f(%) Тe
(°С)
Pmin
(гПа)
dP
(гПа)
Po
(мм)
O2
(г/м3)
Тmin Tmax R s Состояние
почвы
03 22.05.18 270 (З) 10 км    1/0 верхняя 
[Ci fib]
+5.3 -1.3 62 +6  1012.3  -2.4  754  298  +0.5    0.0    влажная 
06 22.05.18 230 (ЮЗ) 10 км    10/10 600 м 
[Sc]
+9 -0.5 51 +8  1007.6  -4.5  750  293           
09 22.05.18 220 (ЮЗ) 10 км  слаб. ливневой дождь  10/10 300 м кучево-дожд. 
[Cb cap]
+9.8 +4.7 71 +9  1003.9  -3.7  747  290           
12 22.05.18 280 (З) 10 км  слаб. ливневой дождь  10/10 300 м кучево-дожд. 
[Cb cap]
+6.9 +5.9 93 +8  1003  -0.9  747  292           
15 22.05.18 340 (С) 3{12}  10 км  {ливн. осадки}  9/9 300 м кучево-дожд. 
[Cb cap]
+4.5 +3 90 +3  1006.6  3.5  749  297    +11.1     
21 22.05.18 340 (С) 3{10}  10 км    10/10 300 м кучево-дожд. 
[Cb cap]
+3.1 -1.5 72 +2  1011.6  2.2  753  300           
00 23.05.18 340 (С) 10 км    10/10 600 м 
[Sc]
+2.6 -1.9 72 +1  1014.3  2.6  755  302           
03 23.05.18 340 (С) 10 км    10/10 300 м кучево-дожд. 
[Cb cap]
+3.3 -2.8 64 +2  1016.2  1.9  756  301  +2.6    0.0    влажная 
06 23.05.18 330 (СЗ) 10 км    10/10 300 м кучево-дожд. 
[Cb cap]
+4.3 -3.9 55 +3  1018.7  2.5  758  301           
09 23.05.18 350 (С) 4{10}  10 км    9/9 300 м кучево-дожд. 
[Cb cap]
+5.7 -4.3 49 +4  1019.8  1.1  759  300           
12 23.05.18 350 (С) 2{11}  10 км    3/3 300 м кучево-дожд. 
[Cb cap]
+8.3 -4.2 41 +8  1019.9  0.2  759  297           
15 23.05.18 010 (С) 10 км    ясно 
+6.1 -4 48 +7  1019.9  759  300    +8.6       
18 23.05.18 тихо ()   10 км    8/8 600 м 
[Sc]
-1.4 -3.3 87 -1  1019.1  -1  759  308           
21 23.05.18 150 (ЮВ) 10 км    10/10 600 м 
[Sc]
+0.6 -2.5 80 +1  1016.3  -2.8  756  304           
00 24.05.18 170 (Ю) 10 км    10/10 600 м 
[Sc]
+2.4 -1.6 75 +3  1014.4  -1.8  755  302           
03 24.05.18 160 (Ю) 10 км    10/10 600 м 
[Sc]
+6.6 +2.3 74 +6  1010.3  -3.9  752  296  -1.4        влажная 
06 24.05.18 190 (Ю) 10 км  {ливн. осадки}  4/4 300 м кучево-дожд. 
[Cb cap]
+13.5 +2.4 47 +13  1005.2  -4.9  748  287           
09 24.05.18 170 (Ю) 10 км  слаб. ливневой дождь  10/10 300 м кучево-дожд. 
[Cb cap]
+10.7 +9.2 90 +12  1003.5  -1.7  747  288           
12 24.05.18 230 (ЮЗ) 10 км  слаб. ливневой дождь  10/10 300 м кучево-дожд. 
[Cb cap]
+11.1 +10.4 95 +14  1003.4  747  287           
15 24.05.18 350 (С) 10 км  {ливн. осадки}  10/10 300 м кучево-дожд. 
[Cb cap]
+8.1 +6.2 88 +7  1005.4  1.9  749  292    +17.4     
18 24.05.18 350 (С) 10 км  {ливн. осадки}  9/9 300 м кучево-дожд. 
[Cb cap]
+5.1 +1.4 77 +5  1008.1  2.6  750  297           
21 24.05.18 310 (СЗ) 10 км    ясно 
+0.6 -0.4 93 +1  1009.5  1.3  751  302           
00 25.05.18 310 (СЗ) 10 км    ясно 
+2.2 -0.7 81 +3  1011.2  1.7  753  301           
03 25.05.18 320 (СЗ) 10 км    ясно 
+7.8 -1.7 51 +8  1012.1  1.1  754  295  -2        влажная 
06 25.05.18 320 (СЗ) 10 км    6/6 600 м 
[Cu med, cong]
+10.1 -4.4 36 +10  1012.2  0.1  754  293           
Время (UTC), дата Ветер
(°,м/с) 
Видим.   Явления Облачность Т
(°С)
Тd
(°С)
f(%) Тe
(°С)
Pmin
(гПа)
dP
(гПа)
Po
(мм)
O2
(г/м3)
Тmin Tmax R s Состояние
почвы

Для получения пояснительной информации подведите курсор к названию столбца.

ПОГОДА Усановы - архив

Всё, что Вы хотите узнать о погоде Усановы - удобно и подробно!

Выберите нужную дату (начиная с 1 января 2015* года) и нажмите кнопку "Найти".
Будут отображены архивные сводки погоды по пункту Усановы, начиная с указанной даты.


Отображать данные в формате CSV (для использования в таблицах Excel)


Внимание! Наш архив погоды предназначен исключительно для личного некоммерческого использования в познавательных целях. Если Вам необходимы официальные справки о состоянии погоды (для производственных, юридических, коммерческих и т.п. целей), обращайтесь в органы Росгидромета.

*Примечание: данная дата относится к архиву по метеостанциям СССР (Россия, СНГ, Балтия).
Архив по метеостанциям Зарубежной Европы и Азии (кроме Китая) хранится 10 дней, по другим регионам земного шара (Китай, Африка, Америка, Австралия, Океания) - 1 день.

Усановы - район местоположения метеостанции


Название, широта, долгота, высота метеостанции:
Усановы 59.5°ш. 73.4°д. 82 м над ур. моря [Российская Федерация]

Дополнительная информация

В oтличие oт бoльшинства пoгoдных сайтoв мы публикуем пoдрoбную метеoинфoрмацию в детальнoм прoфессиoнальнoм фoрмате.

Характеристики температуры и влажнoсти вoздуха измеряются на высoте 2 м в тени вдали oт зданий и деревьев.
Скoрoсть ветра измеряется на высoте 10 м (на урoвне рoста челoвека скoрoсть ветра ниже в 1.5-2 раза). Если метеoстанция нахoдится в гoрoде или в лесу, тo скoрoсть ветра занижена на 2-4 м/с пo сравнению с oткрытым местoм. Скoрoсть ветра над акватoриями крупных рек и oзёр, а также на вершинах хoлмoв на 2-5 м/с выше, чем в oбычных услoвиях.
Атмoсфернoе давление в разных тoчках местнoсти мoжет значительнo oтличаться oт давления на метеoстанции, в зависимoсти oт услoвий рельефа (при пoдъёме на 10 м давление пoнижается примернo на 1 мм рт.ст.).